Slide Mountain Weather observations

Data are for 10 minute period ending at time listed.
 Day   Time   Solar   Ave.   Ave.  Ave.  Vector  Max.    Baro.  
  of    of     Rad.   Air    Rel.  Wind   Wind   Wind   Press.  
Year   Day            Temp.  Hum.  Speed  Dir.   Gust           
2019   (PST)  Kw/m2    F      %     mph   deg.    mph     mb.   
-----------------------------------------------------------------
  20   15:50   0.01   25.5    99   -0.0    70      3.3    701.2 
  20   16:00   0.01   25.2    99   -0.1    70      2.1    700.9 
  20   16:10   0.01   25.0    98    0.0   250      1.7    701.2 
  20   16:20   0.01   24.8    98   -0.0    70      1.2    701.5 
  20   16:30   0.01   24.6    98   -0.0    70      1.5    701.4 
  20   16:40   0.01   24.4    98   -0.0    70      0.7    701.4 
  20   16:50   0.01   24.2    98    0.0   250      1.4    701.4 
  20   17:00   0.00   24.0    98   -0.1    70      1.7    700.8 
  20   17:10   0.00   23.8    98   -0.0    70      1.8    700.5 
  20   17:20   0.00   23.6    98    0.0   250      2.2    700.6 
  20   17:30   0.00   23.4    98    0.0   250      2.5    700.5 
  20   17:40   0.00   23.1    98   -0.1    70      1.7    700.3 
  20   17:50   0.00   22.8    98    0.0   250      2.4    700.0 
  20   18:00   0.00   22.4    97   -0.1    70      1.2    700.1 
  20   18:10   0.00   22.0    97   -0.1    70      2.2    700.0 
  20   18:20   0.00   21.7    97   -0.0    70      1.8    699.9 
  20   18:30   0.00   21.5    97   -0.0    70      1.7    699.5 
  20   18:40   0.00   21.2    96   -0.0    70      1.8    699.3 
  20   18:50   0.00   20.8    96   -0.1    70      2.1    699.5 
  20   19:00   0.00   20.2    96   -0.0    70      2.1    699.3 
  20   19:10   0.00   19.6    95   -0.0    70      2.2    699.2 
  20   19:20   0.00   19.0    95   -0.0    70      2.4    699.2 
  20   19:30   0.00   18.5    94   -0.1    70      2.6    698.9 
  20   19:40   0.00   18.3    94   -0.1    70      1.8    699.0 
  20   19:50   0.00   18.2    94   -0.0    70      1.5    699.6 
  20   20:00   0.00   18.2    94   -0.1    70      1.5    699.1 
  20   20:10   0.00   18.2    94    0.0   250      1.1    699.5 
  20   20:20   0.00   18.3    94   -0.0    70      0.7    700.1 
  20   20:30   0.00   18.3    94    0.0   250      1.4    700.0 
  20   20:40   0.00   18.4    94   -0.0    70      1.0    699.8 
  20   20:50   0.00   18.4    94   -0.0    70      0.7    699.8 
  20   21:00   0.00   18.5    94    0.0   250      0.7    700.1 
  20   21:10   0.00   18.6    94   -0.0    70      0.8    700.0 
  20   21:20   0.00   18.6    94   -0.0    70      0.8    699.9 
  20   21:30   0.00   18.6    94   -0.0    70      0.4    700.0 
  20   21:40   0.00   18.6    94   -0.0    70      0.4    699.9 
  20   21:50   0.00   18.6    94   -0.0    70      0.7    699.4 
  20   22:00   0.00   18.5    94   -0.0    70      1.9    698.9 
  20   22:10   0.00   18.0    94   -0.0    70      1.8    698.5 
  20   22:20   0.00   17.4    93    0.0   250      2.1    698.5 
  20   22:30   0.00   16.8    93   -0.0    70      1.1    698.7 
  20   22:40   0.00   16.3    93   -0.0    70      1.8    698.8 
  20   22:50   0.00   16.0    93    0.0   250      1.1    699.2 
  20   23:00   0.00   15.7    92   -0.0    70      1.2    698.6 
  20   23:10   0.00   15.4    92   -0.1    70      1.2    698.0 
  20   23:20   0.00   15.1    92   -0.0    70      1.5    697.5 
  20   23:30   0.00   14.8    92   -0.0    70      1.4    698.4 
  20   23:40   0.00   14.8    92   -0.0    70      0.6    699.6 
  20   23:50   0.00   14.8    92   -0.0    70      0.6    699.9 
  21    0:00   0.00   14.8    92    0.0   250      0.6    700.0 
  21    0:10   0.00   14.8    92    0.0   250      0.7    699.8 
  21    0:20   0.00   14.7    92    0.0   250      0.6    699.5 
  21    0:30   0.00   14.6    92   -0.0    70      1.2    698.8 
  21    0:40   0.00   14.3    92   -0.0    70      0.7    698.7 
  21    0:50   0.00   13.9    92   -0.0    70      0.8    698.5 
  21    1:00   0.00   13.7    92    0.0   147      0.8    698.5 
  21    1:10   0.00   13.5    91   -0.1    70      1.0    698.0 
  21    1:20   0.00   13.3    91    0.0   250      1.9    697.7 
  21    1:30   0.00   13.1    91   -0.0    70      1.4    697.4 
  21    1:40   0.00   12.9    91    0.0   250      2.1    697.2 
  21    1:50   0.00   12.8    91    0.0   250      2.4    697.0 
  21    2:00   0.00   12.8    91    0.1   250      3.7    697.1 
  21    2:10   0.00   12.8    91   -0.1    70      1.2    697.3 
  21    2:20   0.00   12.8    91   -0.0    70      3.6    697.2 
  21    2:30   0.00   12.8    91   -0.1    70      1.8    697.3 
  21    2:40   0.00   12.8    91    0.0   250      2.8    697.3 
  21    2:50   0.00   12.8    91   -0.0    70      1.5    697.9 
  21    3:00   0.00   12.9    91    0.0   250      2.6    697.9 
  21    3:10   0.00   12.9    91   -0.0    70      2.9    697.6 
  21    3:20   0.00   13.0    91   -0.0    70      1.8    698.1 
  21    3:30   0.00   13.0    91   -0.0    70      2.6    698.4 
  21    3:40   0.00   13.1    91   -0.0    70      1.5    699.1 
  21    3:50   0.00   13.2    91    0.0   250      1.1    699.3 
  21    4:00   0.00   13.2    91   -0.0    70      1.1    699.3 
  21    4:10   0.00   13.2    91   -0.0    70      0.7    700.3 
  21    4:20   0.00   13.3    91    0.0   250      0.4    700.8 
  21    4:30   0.00   13.4    91    0.0     0      0.0    701.1 
  21    4:40   0.00   13.4    91   -0.0    70      0.7    701.2 
  21    4:50   0.00   13.3    91    0.0     0      0.0    701.2 
  21    5:00   0.00   13.3    91    0.0     0      0.0    701.6 
  21    5:10   0.00   13.4    91    0.0     0      0.0    701.8 
  21    5:20   0.00   13.6    92    0.0     0      0.0    701.7 
  21    5:30   0.00   13.7    92    0.0     0      0.0    701.9 
  21    5:40   0.00   13.8    92    0.0     0      0.0    701.8 
  21    5:50   0.00   13.9    92    0.0     0      0.0    702.1 
  21    6:00   0.00   14.0    92    0.0     0      0.0    702.4 
  21    6:10   0.00   14.1    92    0.0     0      0.0    702.9 
  21    6:20   0.00   14.2    92    0.0     0      0.0    703.2 
  21    6:30   0.00   14.3    92    0.0     0      0.0    703.5 
  21    6:40   0.00   14.3    92    0.0     0      0.0    703.6 
  21    6:50   0.00   14.3    92    0.0     0      0.0    703.8 
  21    7:00   0.00   14.4    92    0.0     0      0.0    704.0 
  21    7:10   0.00   14.4    92    0.0     0      0.0    704.3 
  21    7:20   0.00   14.4    92    0.0     0      0.0    704.4 
  21    7:30   0.01   14.4    92    0.0     0      0.0    704.5 
  21    7:40   0.01   14.4    92    0.0     0      0.0    704.8 
  21    7:50   0.01   14.3    92    0.0     0      0.0    705.0 
  21    8:00   0.02   14.3    92    0.0     0      0.0    705.2 
  21    8:10   0.02   14.2    92    0.0     0      0.0    705.4 
  21    8:20   0.03   14.2    92    0.0     0      0.0    705.5 
  21    8:30   0.04   14.2    92    0.0     0      0.0    705.7 
  21    8:40   0.08   14.3    92    0.0     0      0.0    705.9 
  21    8:50   0.10   14.6    92    0.0     0      0.0    706.0 
  21    9:00   0.11   15.0    92    0.0     0      0.0    706.2 
  21    9:10   0.11   15.4    92    0.0     0      0.0    706.4 
  21    9:20   0.08   15.7    92    0.0     0      0.0    706.6 
  21    9:30   0.13   15.7    92    0.0     0      0.0    706.6 
  21    9:40   0.31   15.9    92    0.0     0      0.0    706.7 
  21    9:50   0.38   16.4    92    0.0     0      0.0    706.8 
  21   10:00   0.37   17.1    92    0.0     0      0.0    706.9 
  21   10:10   0.33   17.7    92    0.0     0      0.0    707.0 
  21   10:20   0.43   17.9    92    0.0     0      0.0    707.1 
  21   10:30   0.40   17.9    92    0.0     0      0.0    707.3 
  21   10:40   0.36   18.4    92    0.0     0      0.0    707.5 
  21   10:50   0.36   18.4    92    0.0     0      0.0    707.5 
  21   11:00   0.30   17.9    92    0.0     0      0.0    707.5 
  21   11:10   0.26   17.3    92    0.0     0      0.0    707.6 
  21   11:20   0.24   17.0    92    0.0     0      0.0    707.7 
  21   11:30   0.39   17.0    92    0.0     0      0.0    707.8 
  21   11:40   0.41   17.2    92    0.0     0      0.0    707.8 
  21   11:50   0.47   17.4    92    0.0     0      0.0    708.0 
  21   12:00   0.49   17.8    92    0.0     0      0.0    708.0 
  21   12:10   0.49   18.1    92    0.0     0      0.0    708.1 
  21   12:20   0.50   18.3    92    0.0     0      0.0    708.2 
  21   12:30   0.46   18.7    92    0.0     0      0.0    708.3 
  21   12:40   0.50   19.0    92    0.0     0      0.0    708.2 
  21   12:50   0.48   19.1    92    0.0     0      0.0    708.4 
  21   13:00   0.48   19.3    92    0.0     0      0.0    708.4 
  21   13:10   0.49   19.5    92    0.0     0      0.0    708.5 
  21   13:20   0.54   19.6    92    0.0     0      0.0    708.4 
  21   13:30   0.55   20.0    92    0.0     0      0.0    708.4 
  21   13:40   0.34   20.2    92    0.0     0      0.0    708.4 
  21   13:50   0.45   19.4    92    0.0     0      0.0    708.4 
  21   14:00   0.36   19.2    92    0.0     0      0.0    708.5 
  21   14:10   0.39   19.2    92    0.0     0      0.0    708.6 
  21   14:20   0.44   19.6    92    0.0     0      0.0    708.7 
  21   14:30   0.45   20.0    92    0.0     0      0.0    708.6 
  21   14:40   0.38   20.1    92    0.0     0      0.0    708.6 
  21   14:50   0.37   20.0    92    0.0     0      0.0    708.8 
  21   15:00   0.35   19.9    92    0.0     0      0.0    708.9 
  21   15:10   0.35   19.5    92    0.0     0      0.0    709.0 
  21   15:20   0.29   18.7    92    0.0     0      0.0    709.0 
  21   15:30   0.26   18.3    92    0.0     0      0.0    709.1 
  21   15:40   0.24   17.8    92    0.0     0      0.0    709.2 

Return to Slide Mountain graphs page.


Western Regional Climate Center,wrcc@dri.edu